ARIANE 1 DEB, 48343

Orbit data source: Space-Track

ARIANE 1 DEB, 48343 is space debris in HEO originally from a launch on Fri, 19 Jun 1981 UTC launched from the French Guiana (FRGUI). Debris objects in space refer to the collection of defunct objects orbiting the Earth. Examples of debris include non-operational satellites, rocket bodies, and fragments generated from explosions, collisions, or faulty payload assembly.

Loading next visibility...
Identifier
48343, 1981-057G
Orbit
HEO
Country
Flag of ESAESA
Related business
Manufacturer
THALA/CNEST
Mission
Spacecraft
Bus & Motor
Unknown
Mass
Unknown
Launch date (UTC)
1981-06-19 (44 years ago)
Launch vehicle
Unknown
Launch site
French Guiana (FRGUI)
Object type
Payload
Rocket body
Debris
Shape & HBR
Unknown
Radar Cross Section
Medium (>0.1 m² and <1 m²)

Expand to show TLE details & history
Last TLE update: 3 days ago

TLE from 3 days ago
0 ARIANE 1 DEB
1 48343U 81057G   25258.82562510  .00002371  00000-0  12864-1 0  9999
2 48343  10.6682 108.5005 6705424 103.0469 117.4786  2.86667318122430
Epoch: 2025-09-15T19:48Z
TLE epoch observation values (Epoch: 2025-09-15T19:48:54.008Z)
Latitude
-10.63976°
Longitude
81.53705°
Altitude
25,539.809 km
Speed
2.436 km/s
True Right ascension
00h 55m 08s
True Declination
-10° 37' 33"
Sunlit
Object was in daylight at epoch
Visualization orbit readout
Latitude
Unknown
Longitude
Unknown
Altitude
Unknown
Speed
Unknown
Apparent Right ascension
Unknown
Apparent Declination
Unknown
Sunlit
N/A
Visualization observer readout
Local Sidereal Time
12:48:13
Azimuth
Unknown
Elevation
Unknown
Doppler factor
Unknown
Orbital elements
Apogee altitude
28,598.301 km
Perigee altitude
519.774 km
Semi-major axis
20,937.175 km
Eccentricity
0.67054
Inclination
10.6682°
RAAN
108.5005°
Arg. of periapsis
103.0469°
True anomaly
162.33576°
Mean anomaly
117.4786°
Eccentric anomaly
141.43122°
Mean motion
0.71642 °/min
Orbital period
502.5 mins
BSTAR
0.012864
Loading maneuver chart data...
Computing Atmospheric mass density...
Loading historical data...
Loading historical data...
Loading historical data...
Loading historical data...
Loading historical data...
Loading historical data...
Loading historical data...

Documentation

Showing up to 5 results
|